RH
20 22 21 22 24 25 24 24 24 26 25 26 28 28 29 30 31 34 35 31 23 28 25 25 21 19 15 15 12 17 86 100 100 100 100 30 21 25 90 85 58 80 57
23 24 25 26 27 25 24 24 25 25 25 26 27 33 39 41 41 37 37 39 37 32 31 31 28 26 23 18 45 16 54 68 99 99 99 99 94 64 33 42 43 37 30
26 27 28 29 27 27 27 26 24 26 27 27 27 30 28 32 29 23 25 37 44 40 42 36 35 33 28 83 19 15 46 98 81 77 94 95 97 100 97 35 42 37 30
31 29 27 27 27 26 22 23 25 29 27 26 28 26 32 32 26 31 27 30 45 45 44 47 40 36 34 28 24 23 85 98 100 100 99 100 98 100 99 85 49 38 30
28 24 20 24 26 28 29 35 56 61 67 42 35 40 37 28 20 25 46 32 29 53 49 54 49 38 36 33 26 30 27 99 100 98 100 99 100 100 95 98 99 92 46
25 20 25 29 34 34 30 52 52 42 55 64 55 30 25 20 25 35 49 50 72 48 64 58 59 44 39 36 28 26 88 100 96 99 100 98 100 93 75 66 51 45 36
20 28 31 31 35 30 30 51 53 38 42 43 25 24 28 30 40 42 47 50 65 62 69 70 62 49 41 37 34 33 86 98 86 98 99 100 99 99 98 92 72 64 54
29 30 31 35 33 30 48 57 59 33 30 33 36 34 35 45 58 65 61 62 66 65 72 75 67 50 47 42 72 59 50 52 100 99 100 94 98 100 99 96 77 66 54
29 30 34 36 32 44 55 59 65 40 38 65 52 45 38 48 56 60 69 72 80 77 77 78 70 55 54 48 48 86 96 94 71 94 96 99 99 100 99 98 98 86 53
29 34 38 34 35 58 55 60 77 52 55 84 68 98 88 77 55 57 77 74 85 90 82 82 75 60 60 63 66 74 88 85 99 99 98 95 99 99 100 92 67 60 54
39 42 39 34 54 61 60 75 91 58 54 73 82 89 94 95 65 67 83 100 96 96 87 86 82 69 61 62 75 99 94 99 99 95 99 99 99 99 99 97 78 66 47
46 45 38 58 64 63 80 99 79 58 57 61 76 94 91 85 65 84 100 100 98 98 93 92 96 80 68 69 75 96 93 99 99 98 100 98 99 97 98 97 88 46 24
47 42 50 68 64 73 85 85 81 58 66 88 93 92 100 73 78 99 99 99 99 98 98 92 96 88 75 69 66 74 100 99 99 100 99 94 100 99 97 100 94 26 29
46 42 49 67 70 76 93 91 81 81 76 91 73 93 79 96 100 98 98 98 96 98 98 83 89 97 87 69 67 97 100 99 98 97 99 100 97 98 96 90 45 44 41
45 43 47 68 75 94 98 90 89 88 89 85 87 100 90 92 96 98 99 99 99 99 98 96 78 85 88 71 67 84 95 100 99 100 98 98 99 89 82 54 41 41 38
46 46 57 74 80 98 94 89 89 92 98 100 95 100 100 99 99 99 98 98 98 98 99 99 92 86 82 78 82 100 99 99 99 100 100 99 94 56 69 70 60 60 42
48 49 77 80 88 95 92 89 83 98 98 97 93 100 91 96 96 100 96 97 98 98 98 95 95 93 90 98 97 97 99 100 98 99 99 98 64 41 44 39 32 25 24
48 51 86 85 88 94 93 79 89 100 98 97 96 96 100 96 100 90 98 99 98 98 99 98 98 98 99 97 97 99 95 98 85 78 66 68 51 41 28 25 26 33 40
48 54 99 92 93 97 91 82 91 97 96 97 98 93 91 100 98 96 98 94 97 90 97 98 99 98 100 100 97 100 99 82 70 64 73 61 51 43 34 35 52 83 75
52 57 100 93 98 96 95 89 82 82 94 94 97 99 100 99 100 100 99 97 97 100 100 94 99 99 97 96 99 99 96 89 65 52 35 38 33 35 68 95 87 81 90
52 65 100 97 99 97 92 79 85 83 88 95 97 100 100 100 96 92 92 99 100 98 98 98 95 100 98 97 95 88 63 48 35 30 36 68 72 73 91 94 96 93 94
54 76 100 89 95 94 90 80 86 82 92 95 98 99 100 100 100 98 95 97 98 97 97 99 98 97 97 90 72 58 39 46 61 55 69 78 88 94 93 92 95 95 93
56 86 100 92 94 94 91 86 84 78 86 93 96 97 98 93 98 100 97 96 94 98 95 97 97 97 90 74 51 59 91 86 92 92 92 96 96 95 95 96 95 93 86
58 91 99 94 88 93 94 87 92 88 84 92 96 94 94 87 90 95 96 96 96 95 96 96 98 96 95 91 91 94 92 87 92 96 95 94 94 95 95 95 82 48 48
59 96 98 95 97 93 95 90 94 91 87 92 90 83 84 89 91 92 95 96 94 95 96 95 95 95 95 94 95 96 97 96 96 95 94 95 95 94 81 51 40 34 31
59 91 98 95 100 98 96 95 93 92 87 94 96 94 93 91 94 96 93 93 95 93 89 88 88 88 94 97 98 98 96 94 93 94 95 95 88 58 35 30 27 24 22
Wind_Speed
10 12 15 19 21 23 26 28 31 31 35 37 36 35 36 37 38 37 36 36 34 31 32 35 36 39 42 40 36 36 34 41 42 37 45 30 31 29 27 26 31 39 36
12 14 19 22 25 28 31 33 35 37 37 37 37 36 39 44 47 50 42 40 39 35 33 32 32 34 37 41 36 34 38 47 34 33 32 39 36 37 36 38 37 36 36
13 16 22 26 30 33 36 37 38 38 38 38 40 42 44 42 39 41 46 44 42 39 35 33 31 31 32 37 36 35 32 36 34 36 35 34 36 43 43 36 35 34 33
16 20 26 32 36 37 38 40 42 43 42 42 42 44 42 40 38 39 41 43 46 46 40 35 33 31 30 33 36 34 34 35 34 30 32 35 31 27 31 37 35 32 31
21 25 30 32 34 37 43 44 46 44 40 38 40 42 40 39 41 42 40 39 39 42 47 41 35 31 30 31 34 36 40 35 35 30 36 35 27 28 28 32 36 29 33
27 32 31 32 36 39 40 43 41 37 32 32 29 29 30 31 35 36 35 36 32 35 42 42 36 30 29 32 33 36 32 32 34 37 34 30 22 22 22 20 19 23 26
31 31 31 34 37 39 41 41 37 31 25 25 27 29 30 30 32 32 32 32 31 34 41 41 36 28 28 29 31 35 30 32 29 26 33 27 23 24 26 26 27 30 27
28 29 32 36 38 40 39 38 36 29 22 25 27 29 29 29 30 33 35 36 32 34 38 39 34 28 27 27 31 33 30 32 37 34 28 19 28 27 30 29 29 30 31
30 32 34 37 40 40 40 40 36 29 24 22 27 26 24 26 27 28 32 32 32 32 37 41 36 28 23 24 29 33 35 30 32 35 27 27 26 24 34 30 28 31 29
30 32 35 39 40 42 44 44 32 28 23 22 24 25 27 27 27 29 30 29 30 32 35 43 39 32 25 19 29 32 32 32 26 26 29 26 32 22 24 29 26 26 28
32 35 38 40 41 43 43 31 23 25 24 23 26 28 29 29 28 31 25 26 28 34 35 46 41 34 27 21 29 32 27 29 36 36 33 36 27 30 34 34 25 25 27
34 37 39 39 40 37 34 23 23 26 27 29 29 28 29 23 26 23 20 22 25 31 33 48 43 36 29 25 26 26 38 30 32 26 35 33 26 33 31 30 26 23 23
34 36 38 39 39 33 27 25 24 27 28 29 29 27 20 21 22 14 16 20 25 37 28 50 45 37 30 27 25 28 28 24 29 30 29 30 33 37 35 34 24 20 22
32 35 38 39 38 30 23 26 24 26 29 30 21 11 13 12 13 12 13 17 26 25 27 43 45 39 32 26 25 24 31 26 34 28 32 30 26 30 25 22 19 19 22
31 34 39 39 35 24 23 27 26 25 26 19 4 7 10 11 9 6 9 13 13 15 20 34 41 40 30 27 25 27 30 26 28 27 26 22 27 18 19 17 17 17 17
30 34 37 37 29 21 25 28 31 21 18 4 1 7 3 8 1 2 7 17 15 16 27 29 36 34 27 24 25 28 26 25 25 27 24 27 23 22 20 19 18 15 14
31 34 35 34 24 23 27 29 23 11 11 4 5 6 1 2 0 1 3 8 15 13 23 31 29 26 25 25 24 19 18 25 27 27 28 25 22 20 20 20 19 18 16
31 33 34 30 22 23 25 23 15 8 7 6 5 2 1 2 2 4 7 10 9 19 25 24 22 24 18 25 25 23 19 20 19 19 18 20 20 19 17 16 16 14 12
31 32 33 26 21 24 17 16 10 5 2 8 4 5 7 6 1 6 7 9 12 14 19 23 23 17 20 26 21 17 22 23 23 22 21 17 15 13 13 13 11 9 6
31 30 31 24 21 19 13 15 12 8 8 4 6 10 7 5 4 5 6 13 12 12 18 18 17 17 15 15 18 22 23 22 21 21 21 21 18 15 13 9 7 9 11
28 26 27 20 18 15 13 14 14 10 3 4 10 13 10 9 7 7 7 11 14 12 15 14 14 13 21 24 25 26 20 18 18 19 21 19 20 20 19 16 11 14 11
25 23 23 18 14 12 13 13 14 10 3 3 9 11 10 10 9 6 5 10 11 11 13 14 18 21 24 26 25 24 24 22 20 20 23 23 21 19 19 19 12 9 11
23 19 20 16 12 8 9 12 13 10 8 5 7 10 11 10 11 11 10 10 12 12 13 18 21 25 28 27 27 27 26 24 25 26 21 18 17 12 10 9 8 13 16
20 15 17 12 9 9 7 6 10 9 10 12 11 11 10 9 11 12 11 11 12 15 17 19 23 28 29 26 23 23 26 28 27 22 20 12 8 10 10 10 14 17 18
18 11 14 9 6 6 6 3 3 8 9 8 10 10 10 9 8 8 9 11 13 16 14 14 15 15 16 16 15 13 14 17 18 12 8 7 8 10 13 16 18 20 22
16 9 11 8 4 6 5 3 1 4 8 7 5 5 5 6 7 7 8 12 13 15 15 15 15 14 13 9 15 18 16 13 8 5 7 10 12 15 17 19 21 23 24
Wind_Direction
296 303 306 306 303 302 300 300 301 298 298 292 288 286 286 282 280 274 271 270 269 267 262 260 257 255 251 251 253 248 249 245 238 221 242 227 233 232 221 232 223 224 235
288 297 301 301 301 299 299 302 298 295 293 289 285 284 289 283 277 277 265 262 263 264 266 265 260 256 251 244 240 242 234 240 243 238 250 233 240 231 231 228 234 237 239
278 289 296 298 301 304 306 303 300 294 293 285 280 281 285 284 275 272 272 263 257 256 258 263 265 258 254 233 240 238 238 239 243 246 245 242 249 243 241 236 237 240 242
277 285 295 302 303 305 306 305 304 299 294 287 283 285 287 278 276 273 268 266 256 250 252 255 258 257 249 244 237 234 230 231 234 240 241 233 236 257 257 236 239 246 248
291 299 302 302 305 309 311 310 307 302 294 286 287 289 286 278 278 277 269 262 260 250 245 248 251 254 249 241 237 232 229 229 233 234 225 229 244 246 252 262 249 244 250
305 305 307 307 311 309 310 313 313 308 296 285 283 282 282 287 284 276 272 263 255 255 232 238 244 247 248 238 234 234 226 224 230 227 240 246 233 239 250 250 251 253 255
307 309 309 311 312 312 313 313 308 304 296 288 283 280 283 286 284 277 269 265 252 251 230 229 236 242 246 240 230 225 215 217 226 225 232 228 233 241 248 247 242 247 257
316 314 315 316 315 316 314 312 304 292 283 284 289 287 286 288 285 277 274 269 259 245 230 223 228 233 231 232 217 221 214 221 225 219 217 219 235 240 250 242 246 243 235
316 315 318 320 318 317 314 308 297 285 283 291 291 286 283 283 281 283 269 264 257 242 224 216 218 223 221 226 219 209 215 210 223 219 221 231 233 232 243 246 248 247 245
313 319 324 322 320 317 313 308 284 278 286 293 288 289 289 294 287 287 271 260 246 235 222 210 214 219 220 223 207 214 215 217 221 229 224 237 231 238 239 244 246 247 243
322 327 326 324 321 319 317 312 281 278 280 291 289 294 293 293 287 290 271 257 233 229 218 207 210 213 216 221 216 216 216 216 225 223 229 235 226 232 244 240 238 239 242
326 327 326 326 323 321 320 310 292 286 286 297 296 294 301 285 284 287 248 243 229 229 217 207 208 211 216 220 222 213 219 215 218 225 226 222 230 247 250 249 233 237 241
328 326 328 328 326 322 317 311 298 292 297 304 301 295 292 294 287 262 235 223 223 222 211 208 209 210 218 221 225 218 231 222 221 218 225 241 238 243 245 244 227 231 239
329 329 330 328 328 322 318 319 309 301 301 309 299 277 289 304 272 249 227 234 203 208 207 207 209 212 216 222 226 213 226 228 223 229 236 237 244 246 247 230 219 218 224
330 331 331 330 331 322 318 322 319 314 312 312 256 281 319 312 265 265 229 220 200 222 201 198 202 210 213 221 220 223 217 237 224 229 240 246 245 219 213 212 211 212 218
333 334 332 333 335 329 322 324 318 320 325 269 160 286 10 348 193 156 50 186 174 191 185 181 191 199 208 219 228 210 226 230 224 238 232 245 212 204 198 203 214 223 228
334 336 335 337 335 333 331 325 325 328 320 190 111 316 282 42 280 98 173 135 178 178 155 179 193 203 217 222 213 212 226 228 237 237 231 211 190 195 194 195 197 200 199
333 335 336 339 334 339 334 331 331 331 291 152 146 144 80 142 66 58 112 178 173 172 179 193 185 200 190 197 206 225 223 217 192 178 165 177 187 189 188 188 189 191 198
333 335 335 340 336 338 339 338 329 322 106 161 172 142 179 145 204 147 123 150 173 165 182 179 189 196 204 209 209 224 207 184 180 174 178 177 173 179 189 182 187 206 227
330 333 335 340 340 341 352 344 347 324 260 238 175 148 159 141 146 175 183 172 179 168 173 168 173 177 192 199 204 193 180 172 172 176 176 171 169 172 173 184 202 228 237
326 331 334 339 344 351 7 345 356 354 302 223 186 188 169 155 135 131 147 169 166 170 174 183 191 191 191 186 171 159 164 169 173 171 167 175 179 193 202 209 219 233 246
324 329 333 341 345 347 3 2 9 11 25 148 189 193 188 163 160 147 148 167 174 187 199 198 194 185 179 165 165 168 160 160 167 176 183 182 195 209 230 234 241 266 285
320 326 330 336 340 338 1 17 29 39 65 102 135 174 182 180 159 154 182 184 181 188 183 184 188 184 171 174 172 164 166 167 177 191 205 205 200 203 229 243 265 273 282
314 323 323 330 348 352 342 0 39 58 73 87 109 128 136 137 134 137 150 166 173 181 191 183 187 188 186 183 184 192 193 195 198 208 204 188 207 234 256 278 281 281 293
308 312 320 317 337 355 1 351 26 65 77 82 93 106 111 114 130 152 171 185 195 185 180 177 165 170 174 183 188 201 193 187 179 171 180 213 245 268 275 274 282 289 296
296 298 310 306 300 323 341 354 14 89 87 84 84 108 130 147 160 171 183 177 170 169 167 166 170 174 189 205 178 173 168 158 155 197 232 251 264 269 276 284 289 295 299